EN

Hourly Weather Lagow

Today, 3 August, Tuesday

Time Temperature Precipitation Wind Pressure Humidity
00:00 +14°C° 0 mm 2 mps 743 mmHg 84%
01:00 +14°C° 0 mm 2 mps 743 mmHg 87%
02:00 +13°C° 0 mm 2 mps 743 mmHg 88%
03:00 +13°C° 0 mm 2 mps 743 mmHg 89%
04:00 +13°C° 0 mm 2 mps 743 mmHg 90%
05:00 +14°C° 0 mm 1 mps 743 mmHg 85%
06:00 +15°C° 0 mm 1 mps 743 mmHg 79%
07:00 +18°C° 0 mm 1 mps 744 mmHg 74%
08:00 +19°C° 0.2 mm 1 mps 744 mmHg 69%
09:00 +20°C° 0.2 mm 1 mps 744 mmHg 65%
10:00 +22°C° 0.2 mm 1 mps 744 mmHg 60%
11:00 +21°C° 0.6 mm 2 mps 743 mmHg 60%
12:00 +23°C° 0.6 mm 2 mps 743 mmHg 59%
13:00 +23°C° 0.6 mm 2 mps 743 mmHg 58%
14:00 +21°C° 0.8 mm 3 mps 743 mmHg 64%
15:00 +20°C° 0.8 mm 3 mps 742 mmHg 71%
16:00 +19°C° 0.8 mm 3 mps 742 mmHg 77%
17:00 +18°C° 0.5 mm 2 mps 742 mmHg 80%
18:00 +18°C° 0.5 mm 1 mps 742 mmHg 83%
19:00 +18°C° 0.5 mm 1 mps 742 mmHg 85%
20:00 +16°C° 0 mm 1 mps 742 mmHg 86%
21:00 +15°C° 0 mm 1 mps 742 mmHg 86%
22:00 +14°C° 0 mm 1 mps 742 mmHg 87%
23:00 +15°C° 0 mm 1 mps 742 mmHg 87%

Tomorrow, 4 August, Wednesday

Time Temperature Precipitation Wind Pressure Humidity
00:00 +15°C° 0 mm 2 mps 742 mmHg 88%
01:00 +15°C° 0 mm 2 mps 742 mmHg 89%
02:00 +15°C° 0.7 mm 2 mps 742 mmHg 91%
03:00 +15°C° 0.7 mm 2 mps 742 mmHg 93%
04:00 +15°C° 0.7 mm 2 mps 742 mmHg 95%
05:00 +15°C° 0.4 mm 1 mps 742 mmHg 95%
06:00 +15°C° 0.4 mm 1 mps 742 mmHg 94%
07:00 +15°C° 0.4 mm 1 mps 743 mmHg 94%
08:00 +16°C° 0.3 mm 1 mps 743 mmHg 92%
09:00 +16°C° 0.3 mm 1 mps 743 mmHg 90%
10:00 +17°C° 0.3 mm 2 mps 743 mmHg 87%
11:00 +17°C° 0.2 mm 2 mps 743 mmHg 85%
12:00 +18°C° 0.2 mm 2 mps 742 mmHg 83%
13:00 +18°C° 0.2 mm 2 mps 742 mmHg 81%
14:00 +19°C° 0.1 mm 2 mps 742 mmHg 77%
15:00 +19°C° 0.1 mm 2 mps 742 mmHg 72%
16:00 +20°C° 0.1 mm 2 mps 742 mmHg 68%
17:00 +19°C° 0 mm 2 mps 742 mmHg 72%
18:00 +20°C° 0 mm 1 mps 742 mmHg 76%
19:00 +19°C° 0 mm 1 mps 742 mmHg 80%
20:00 +18°C° 0 mm 1 mps 742 mmHg 83%
21:00 +16°C° 0 mm 1 mps 742 mmHg 85%
22:00 +15°C° 0 mm 1 mps 742 mmHg 87%
23:00 +15°C° 0 mm 1 mps 742 mmHg 88%

Day after tomorrow, 5 August, Thursday

Time Temperature Precipitation Wind Pressure Humidity
00:00 +15°C° 0 mm 1 mps 742 mmHg 88%
01:00 +15°C° 0 mm 1 mps 741 mmHg 89%
02:00 +15°C° 0 mm 1 mps 741 mmHg 89%
03:00 +14°C° 0 mm 1 mps 741 mmHg 90%
04:00 +14°C° 0 mm 1 mps 741 mmHg 91%
05:00 +15°C° 0 mm 1 mps 741 mmHg 88%
06:00 +16°C° 0 mm 1 mps 741 mmHg 85%
07:00 +18°C° 0 mm 1 mps 741 mmHg 82%
08:00 +19°C° 0 mm 1 mps 740 mmHg 78%
09:00 +19°C° 0 mm 1 mps 740 mmHg 75%
10:00 +20°C° 0 mm 1 mps 740 mmHg 72%
11:00 +19°C° 0.4 mm 2 mps 740 mmHg 76%
12:00 +18°C° 0.4 mm 2 mps 740 mmHg 80%
13:00 +18°C° 0.4 mm 2 mps 740 mmHg 83%
14:00 +17°C° 0.5 mm 2 mps 740 mmHg 86%
15:00 +18°C° 0.5 mm 1 mps 740 mmHg 89%
16:00 +18°C° 0.5 mm 1 mps 739 mmHg 92%
17:00 +16°C° 0.2 mm 1 mps 739 mmHg 93%
18:00 +16°C° 0.2 mm 1 mps 739 mmHg 94%
19:00 +16°C° 0.2 mm 1 mps 739 mmHg 95%
20:00 +15°C° 0.2 mm 1 mps 739 mmHg 96%
21:00 +15°C° 0.2 mm 1 mps 739 mmHg 96%
22:00 +15°C° 0.2 mm 1 mps 739 mmHg 97%
23:00 +15°C° 0.2 mm 1 mps 739 mmHg 97%

6 August, Friday

Time Temperature Precipitation Wind Pressure Humidity
00:00 +15°C° 0.2 mm 1 mps 739 mmHg 97%
01:00 +15°C° 0.2 mm 1 mps 738 mmHg 97%
02:00 +15°C° 0.2 mm 1 mps 738 mmHg 97%
03:00 +15°C° 0.2 mm 1 mps 738 mmHg 97%
04:00 +15°C° 0.2 mm 1 mps 738 mmHg 96%
05:00 +15°C° 0 mm 1 mps 738 mmHg 94%
06:00 +16°C° 0 mm 1 mps 738 mmHg 91%
07:00 +16°C° 0 mm 2 mps 738 mmHg 88%
08:00 +17°C° 0.1 mm 2 mps 738 mmHg 84%
09:00 +18°C° 0.1 mm 3 mps 738 mmHg 79%
10:00 +19°C° 0.1 mm 3 mps 738 mmHg 75%
11:00 +20°C° 0.3 mm 3 mps 738 mmHg 71%
12:00 +21°C° 0.3 mm 3 mps 738 mmHg 67%
13:00 +22°C° 0.3 mm 3 mps 738 mmHg 64%
14:00 +22°C° 0.1 mm 3 mps 738 mmHg 64%
15:00 +23°C° 0.1 mm 2 mps 738 mmHg 65%
16:00 +21°C° 0.1 mm 2 mps 738 mmHg 66%
17:00 +22°C° 0.1 mm 1 mps 738 mmHg 70%
18:00 +21°C° 0.1 mm 1 mps 739 mmHg 73%
19:00 +20°C° 0.1 mm 1 mps 739 mmHg 77%
20:00 +19°C° 0 mm 1 mps 739 mmHg 79%
21:00 +18°C° 0 mm 1 mps 739 mmHg 82%
22:00 +17°C° 0 mm 2 mps 739 mmHg 85%
23:00 +16°C° 0 mm 2 mps 739 mmHg 85%

7 August, Saturday

Time Temperature Precipitation Wind Pressure Humidity
00:00 +16°C° 0 mm 2 mps 739 mmHg 86%
01:00 +16°C° 0 mm 2 mps 739 mmHg 86%
02:00 +16°C° 0 mm 2 mps 739 mmHg 86%
03:00 +16°C° 0 mm 2 mps 739 mmHg 87%
04:00 +16°C° 0 mm 2 mps 739 mmHg 87%
05:00 +17°C° 0 mm 2 mps 739 mmHg 84%
06:00 +18°C° 0 mm 2 mps 740 mmHg 80%
07:00 +19°C° 0 mm 2 mps 740 mmHg 77%
08:00 +21°C° 0 mm 2 mps 740 mmHg 70%
09:00 +22°C° 0 mm 3 mps 740 mmHg 63%
10:00 +25°C° 0 mm 3 mps 739 mmHg 55%
11:00 +26°C° 0 mm 3 mps 739 mmHg 52%
12:00 +27°C° 0 mm 3 mps 739 mmHg 48%
13:00 +28°C° 0 mm 3 mps 739 mmHg 45%
14:00 +28°C° 0 mm 3 mps 739 mmHg 45%
15:00 +28°C° 0 mm 2 mps 739 mmHg 44%
16:00 +28°C° 0 mm 2 mps 738 mmHg 44%
17:00 +27°C° 0 mm 2 mps 738 mmHg 51%
18:00 +25°C° 0 mm 2 mps 738 mmHg 58%
19:00 +23°C° 0 mm 2 mps 738 mmHg 65%
20:00 +21°C° 0.9 mm 2 mps 738 mmHg 74%
21:00 +20°C° 0.9 mm 2 mps 739 mmHg 84%
22:00 +18°C° 0.9 mm 3 mps 739 mmHg 93%
23:00 +18°C° 0.9 mm 3 mps 739 mmHg 94%

8 August, Sunday

Time Temperature Precipitation Wind Pressure Humidity
00:00 +18°C° 0.9 mm 2 mps 739 mmHg 96%
01:00 +18°C° 0.9 mm 2 mps 739 mmHg 97%
02:00 +18°C° 0.3 mm 3 mps 740 mmHg 96%
03:00 +17°C° 0.3 mm 3 mps 740 mmHg 94%
04:00 +17°C° 0.3 mm 4 mps 740 mmHg 92%
05:00 +17°C° 0 mm 4 mps 741 mmHg 91%
06:00 +17°C° 0 mm 4 mps 741 mmHg 90%
07:00 +17°C° 0 mm 4 mps 742 mmHg 89%
08:00 +17°C° 0 mm 5 mps 742 mmHg 81%
09:00 +19°C° 0 mm 5 mps 743 mmHg 73%
10:00 +20°C° 0 mm 5 mps 743 mmHg 65%
11:00 +21°C° 0 mm 5 mps 743 mmHg 60%
12:00 +22°C° 0 mm 5 mps 744 mmHg 55%
13:00 +23°C° 0 mm 5 mps 744 mmHg 49%
14:00 +23°C° 0.1 mm 5 mps 744 mmHg 52%
15:00 +22°C° 0.1 mm 4 mps 744 mmHg 55%
16:00 +22°C° 0.1 mm 3 mps 744 mmHg 57%
17:00 +21°C° 0.1 mm 3 mps 745 mmHg 62%
18:00 +20°C° 0.1 mm 3 mps 745 mmHg 66%
19:00 +19°C° 0.1 mm 2 mps 745 mmHg 71%
20:00 +19°C° 0 mm 2 mps 746 mmHg 72%
21:00 +18°C° 0 mm 2 mps 746 mmHg 73%
22:00 +17°C° 0 mm 3 mps 746 mmHg 75%
23:00 +17°C° 0 mm 3 mps 746 mmHg 77%
Show more